EW9037 Weather Reports


time (UTC)temp
C
wind
direction
speed
KPH
gust
KPH
rain 1hr
cm
rain 24hr
cm
rain mn
cm
humidity
%
barometer
mb
20260905204518 35 321 1.6 8.0 0.00 0.00 0.00 52 1012.0
20260905203016 35 235 3.2 8.0 0.00 0.00 0.00 54 1012.2
20260905201521 35 38 3.2 9.7 0.00 0.00 0.00 53 1012.4
20260905200009 35 197 3.2 9.7 0.00 0.00 0.00 54 1012.6
20260905194531 35 161 1.6 12.9 0.00 0.00 0.00 54 1012.7
20260905193027 34 227 4.8 12.9 0.00 0.00 0.00 56 1013.1
20260905191527 34 260 1.6 11.3 0.00 0.00 0.00 55 1013.3
20260905190021 33 56 1.6 8.0 0.00 0.00 0.00 57 1013.3
20260905184520 33 297 3.2 9.7 0.00 0.00 0.00 58 1013.6
20260905183014 32 182 0.0 9.7 0.00 0.00 0.00 58 1013.9
20260905181511 32 63 1.6 9.7 0.00 0.00 0.00 58 1014.0
20260905180031 33 237 4.8 9.7 0.00 0.00 0.00 60 1014.0
20260905174535 32 168 1.6 8.0 0.00 0.00 0.00 58 1014.3
20260905173037 31 190 8.0 14.5 0.00 0.00 0.00 61 1014.4
20260905171524 31 179 4.8 11.3 0.00 0.00 0.00 59 1014.4
20260905170034 31 151 1.6 12.9 0.00 0.00 0.00 63 1014.6
20260905164534 31 190 3.2 9.7 0.00 0.00 0.00 63 1014.9
20260905163034 31 171 6.4 11.3 0.00 0.00 0.00 62 1015.1
20260905161534 30 98 4.8 9.7 0.00 0.00 0.00 66 1015.3
20260905160034 30 33 1.6 12.9 0.00 0.00 0.00 1015.2
20260905154527 29 42 4.8 9.7 0.00 0.00 0.00 69 1015.3
20260905153026 28 94 3.2 16.1 0.00 0.00 0.00 70 1015.3
20260905151533 28 80 3.2 14.5 0.00 0.00 0.00 70 1015.6
20260905150037 28 53 6.4 14.5 0.00 0.00 0.00 72 1015.6
20260905144540 28 51 4.8 14.5 0.00 0.00 0.00 75 1015.8
20260905143012 27 110 8.0 14.5 0.00 0.00 0.00 76 1015.6
20260905141508 27 114 8.0 16.1 0.00 0.00 0.00 78 1015.7
20260905140004 27 55 6.4 16.1 0.00 0.00 0.00 81 1015.7
20260905134503 26 99 4.8 9.7 0.00 0.00 0.00 88 1015.8
20260905133024 25 38 6.4 12.9 0.00 0.00 0.00 90 1015.7
20260905131539 25 106 0.0 0.0 0.00 0.00 0.00 94 1015.2
20260905130016 23 151 0.0 1.6 0.00 0.00 0.00 95 1015.2
20260905124524 23 104 3.2 9.7 0.00 0.00 0.00 95 1015.4
20260905123010 23 66 0.0 0.0 0.00 0.00 0.00 96 1015.4
20260905121507 23 157 0.0 0.0 0.00 0.00 0.00 97 1015.1
20260905120006 23 157 0.0 0.0 0.00 0.00 0.00 97 1015.0
20260905114537 22 157 0.0 0.0 0.00 0.00 0.00 97 1015.0
20260905113026 21 157 0.0 0.0 0.00 0.00 0.00 97 1014.6
20260905111518 22 157 0.0 0.0 0.00 0.00 0.00 97 1014.2
20260905110013 22 157 0.0 0.0 0.00 0.00 0.00 97 1014.0
20260905104513 21 157 0.0 0.0 0.00 0.00 0.00 96 1013.9
20260905103023 22 157 0.0 0.0 0.00 0.00 0.00 97 1013.9
20260905101503 22 157 0.0 0.0 0.00 0.00 0.00 96 1014.0
20260905100029 22 157 0.0 0.0 0.00 0.00 0.00 96 1014.0
20260905094527 22 157 0.0 0.0 0.00 0.00 0.00 96 1013.8
20260905093020 23 157 0.0 0.0 0.00 0.00 0.00 97 1013.7
20260905091519 22 182 0.0 0.0 0.00 0.00 0.00 96 1013.6
20260905090012 22 237 0.0 0.0 0.00 0.00 0.00 95 1013.4
20260905084532 22 237 0.0 0.0 0.00 0.00 0.00 96 1013.5
20260905083032 22 237 0.0 0.0 0.00 0.00 0.00 96 1013.4
20260905081528 22 237 0.0 0.0 0.00 0.00 0.00 96 1013.6
20260905080027 22 237 0.0 0.0 0.00 0.00 0.00 96 1013.3
20260905074528 23 237 0.0 0.0 0.00 0.00 0.00 96 1013.4
20260905073019 23 237 0.0 0.0 0.00 0.00 0.00 96 1013.6
20260905071517 22 221 0.0 0.0 0.00 0.00 0.00 96 1013.9
20260905070011 23 221 0.0 0.0 0.00 0.00 0.00 95 1013.8
20260905064532 23 221 0.0 0.0 0.00 0.00 0.00 96 1013.9
20260905063032 23 221 0.0 0.0 0.00 0.00 0.00 96 1014.0
20260905061530 23 221 0.0 0.0 0.00 0.00 0.00 95 1014.2
20260905060028 23 221 0.0 0.0 0.00 0.00 0.00 96 1014.3
20260905054520 23 221 0.0 0.0 0.00 0.00 0.00 95 1014.3
20260905053019 23 221 0.0 0.0 0.00 0.00 0.00 94 1014.5
20260905051526 23 221 0.0 0.0 0.00 0.00 0.00 95 1014.5
20260905050008 23 221 0.0 0.0 0.00 0.00 0.00 95 1014.6
20260905044511 23 221 0.0 0.0 0.00 0.00 0.00 95 1014.6
20260905043030 23 221 0.0 0.0 0.00 0.00 0.00 95 1014.4
20260905041526 23 221 0.0 0.0 0.00 0.00 0.00 93 1014.5
20260905040026 24 221 0.0 0.0 0.00 0.00 0.00 94 1014.6
20260905034527 24 221 0.0 0.0 0.00 0.00 0.00 94 1014.6
20260905033021 24 260 0.0 0.0 0.00 0.00 0.00 94 1014.6
20260905031523 24 260 0.0 0.0 0.00 0.00 0.00 92 1014.6
20260905030022 25 260 0.0 0.0 0.00 0.00 0.00 93 1014.7
20260905024534 25 260 0.0 0.0 0.00 0.00 0.00 92 1014.7
20260905023032 25 260 0.0 0.0 0.00 0.00 0.00 92 1014.5
20260905021524 25 260 0.0 0.0 0.00 0.00 0.00 91 1014.6
20260905020020 26 260 0.0 0.0 0.00 0.00 0.00 90 1014.6
20260905014517 25 260 0.0 0.0 0.00 0.00 0.00 88 1014.6
20260905013010 26 260 0.0 0.0 0.00 0.00 0.00 88 1014.5
20260905011509 26 260 0.0 0.0 0.00 0.00 0.00 88 1014.3
20260905010029 26 260 0.0 0.0 0.00 0.00 0.00 85 1014.3
20260905004531 27 260 0.0 0.0 0.00 0.00 0.00 83 1014.0
20260905003027 27 260 0.0 0.0 0.00 0.00 0.00 82 1014.1
20260905001522 28 260 0.0 0.0 0.00 0.00 0.00 81 1014.0
20260905000019 28 260 0.0 0.0 0.00 0.00 0.00 79 1013.9
20260904234517 31 5 0.0 0.0 0.00 0.00 0.00 70 1014.1
20260904233014 32 5 0.0 0.0 0.00 0.00 0.00 67 1014.1
20260904231535 33 5 0.0 0.0 0.00 0.00 0.00 61 1014.1
20260904230034 33 5 0.0 0.0 0.00 0.00 0.00 55 1014.1
20260904224540 33 5 0.0 0.0 0.00 0.00 0.00 56 1014.1
20260904223024 34 345 0.0 3.2 0.00 0.00 0.00 55 1014.1
20260904221523 34 5 0.0 6.4 0.00 0.00 0.00 56 1014.2
20260904220016 35 281 1.6 6.4 0.00 0.00 0.00 55 1014.2
20260904214541 35 30 3.2 6.4 0.00 0.00 0.00 52 1014.1
20260904213033 35 60 1.6 8.0 0.00 0.00 0.00 51 1014.0
20260904211532 35 26 0.0 8.0 0.00 0.00 0.00 53 1014.1
20260904210031 35 13 3.2 8.0 0.00 0.00 0.00 53 1014.2